EW1917 Weather Reports


time (UTC)temp
C
wind
direction
speed
KPH
gust
KPH
rain 1hr
cm
rain 24hr
cm
rain mn
cm
humidity
%
barometer
mb
20260507232754 10 140 0.0 1.6 0.00 0.00 0.00 85 1012.7
20260507232251 10 140 1.6 3.2 0.00 0.00 0.00 85 1012.7
20260507231753 10 140 0.0 3.2 0.00 0.00 0.00 86 1012.7
20260507231250 10 140 1.6 3.2 0.00 0.00 0.00 87 1012.7
20260507230800 10 140 1.6 4.8 0.00 0.00 0.00 86 1012.8
20260507230257 10 141 1.6 4.8 0.00 0.00 0.00 86 1012.8
20260507225753 10 97 3.2 3.2 0.00 0.00 0.00 85 1012.7
20260507225256 10 135 0.0 4.8 0.00 0.00 0.00 87 1012.8
20260507224750 10 120 3.2 3.2 0.00 0.00 0.00 87 1012.9
20260507224250 10 120 3.2 4.8 0.00 0.00 0.00 88 1012.9
20260507223759 10 159 1.6 6.4 0.00 0.00 0.00 87 1012.8
20260507223256 10 153 3.2 6.4 0.00 0.00 0.00 87 1012.7
20260507222750 10 155 3.2 4.8 0.00 0.00 0.00 87 1012.7
20260507222253 10 140 4.8 4.8 0.00 0.03 0.00 87 1012.7
20260507221756 10 136 3.2 4.8 0.00 0.03 0.00 86 1012.7
20260507221250 10 101 0.0 3.2 0.00 0.05 0.00 86 1012.7
20260507220750 10 101 1.6 4.8 0.00 0.08 0.00 85 1012.8
20260507220256 10 152 1.6 3.2 0.00 0.08 0.00 87 1012.7
20260507215753 11 152 3.2 6.4 0.00 0.08 0.00 86 1012.7
20260507215251 11 165 6.4 6.4 0.00 0.08 0.00 85 1012.7
20260507214751 11 134 3.2 4.8 0.00 0.08 0.00 84 1012.7
20260507214250 11 147 3.2 4.8 0.00 0.08 0.00 84 1012.7
20260507213750 11 147 3.2 4.8 0.00 0.08 0.00 82 1012.6
20260507213253 11 147 1.6 3.2 0.00 0.08 0.00 80 1012.6
20260507212753 11 147 1.6 3.2 0.00 0.08 0.00 81 1012.6
20260507212253 11 147 0.0 1.6 0.00 0.08 0.00 82 1012.6
20260507211750 11 147 0.0 3.2 0.00 0.08 0.00 82 1012.6
20260507211251 11 147 3.2 4.8 0.00 0.08 0.00 81 1012.7
20260507210753 11 88 0.0 3.2 0.00 0.08 0.00 78 1012.8
20260507210259 11 88 3.2 4.8 0.00 0.08 0.00 78 1012.9
20260507205756 11 88 1.6 3.2 0.00 0.08 0.00 79 1012.8
20260507205259 11 87 1.6 4.8 0.00 0.08 0.00 78 1012.8
20260507204750 11 88 0.0 4.8 0.00 0.13 0.00 78 1012.7
20260507204253 11 85 3.2 4.8 0.00 0.15 0.00 78 1012.6
20260507203750 11 121 1.6 4.8 0.00 0.15 0.00 79 1012.6
20260507203253 11 60 1.6 3.2 0.00 0.15 0.00 77 1012.6
20260507202753 11 60 3.2 4.8 0.00 0.15 0.00 78 1012.7
20260507202254 11 60 3.2 4.8 0.00 0.15 0.00 78 1012.7
20260507201753 12 142 1.6 4.8 0.00 0.15 0.00 79 1012.8
20260507201252 12 117 3.2 4.8 0.00 0.15 0.00 78 1012.8
20260507200757 12 107 3.2 3.2 0.00 0.15 0.00 80 1012.7
20260507200259 12 107 0.0 1.6 0.00 0.15 0.00 80 1012.7
20260507195750 12 107 0.0 0.0 0.00 0.15 0.00 79 1012.7
20260507195250 13 107 0.0 3.2 0.00 0.15 0.00 80 1012.8
20260507194750 13 107 0.0 1.6 0.00 0.15 0.00 79 1012.8
20260507194250 13 107 0.0 0.0 0.00 0.15 0.00 79 1012.7
20260507193754 13 107 0.0 4.8 0.00 0.15 0.00 79 1012.6
20260507193250 13 96 3.2 4.8 0.00 0.15 0.00 77 1012.6
20260507192750 13 79 3.2 4.8 0.00 0.15 0.00 76 1012.4
20260507192250 13 88 1.6 6.4 0.00 0.15 0.00 76 1012.4
20260507191751 13 82 3.2 4.8 0.00 0.15 0.00 75 1012.3
20260507191253 13 82 3.2 4.8 0.00 0.15 0.00 75 1012.3
20260507190750 14 86 3.2 4.8 0.00 0.15 0.00 73 1012.0
20260507190250 14 85 3.2 4.8 0.00 0.15 0.00 73 1012.0
20260507185754 15 71 1.6 6.4 0.00 0.15 0.00 72 1011.9
20260507185253 15 58 3.2 4.8 0.00 0.15 0.00 72 1011.8
20260507184751 15 252 1.6 1.6 0.00 0.15 0.00 72 1011.7
20260507184254 15 252 1.6 3.2 0.00 0.15 0.00 71 1011.7
20260507183753 16 113 1.6 6.4 0.00 0.15 0.00 68 1011.6
20260507183251 16 107 4.8 6.4 0.00 0.15 0.00 68 1011.6
20260507182753 16 96 3.2 6.4 0.00 0.15 0.00 68 1011.6
20260507182253 16 120 3.2 6.4 0.00 0.15 0.00 67 1011.7
20260507181759 16 123 4.8 4.8 0.00 0.15 0.00 66 1011.6
20260507181256 17 128 3.2 4.8 0.00 0.15 0.00 65 1011.5
20260507180753 17 130 1.6 4.8 0.00 0.15 0.00 64 1011.5
20260507180254 17 126 3.2 6.4 0.00 0.15 0.00 61 1011.5
20260507175750 17 174 0.0 6.4 0.00 0.15 0.00 60 1011.3
20260507175253 18 163 3.2 6.4 0.00 0.15 0.00 59 1011.3
20260507174758 18 141 3.2 8.0 0.00 0.15 0.00 59 1011.2
20260507174253 18 221 0.0 4.8 0.00 0.15 0.00 62 1011.1
20260507173756 19 181 3.2 6.4 0.00 0.15 0.00 60 1011.1
20260507173250 19 288 3.2 9.7 0.00 0.15 0.00 59 1011.0
20260507172759 19 174 3.2 4.8 0.00 0.15 0.00 60 1010.9
20260507172250 19 281 1.6 8.0 0.00 0.15 0.00 60 1010.9
20260507171753 19 245 3.2 6.4 0.00 0.15 0.00 61 1010.9
20260507171253 19 259 3.2 11.3 0.00 0.15 0.00 59 1010.9
20260507170751 20 259 9.7 12.9 0.00 0.15 0.00 56 1010.9
20260507170250 20 250 3.2 12.9 0.00 0.15 0.00 58 1011.0
20260507165750 20 215 1.6 6.4 0.00 0.15 0.00 57 1011.0
20260507165250 20 261 1.6 11.3 0.00 0.15 0.00 57 1010.9
20260507164756 20 311 3.2 9.7 0.00 0.15 0.00 55 1010.9
20260507164253 20 266 0.0 9.7 0.00 0.15 0.00 56 1011.0
20260507163750 20 233 1.6 11.3 0.00 0.15 0.00 55 1011.0
20260507163253 20 167 0.0 8.0 0.00 0.15 0.00 55 1011.0
20260507162750 20 256 1.6 9.7 0.00 0.15 0.00 55 1010.9
20260507162250 20 264 11.3 17.7 0.00 0.15 0.00 54 1010.9
20260507161753 20 240 4.8 14.5 0.00 0.15 0.00 52 1010.8
20260507161250 20 286 4.8 11.3 0.00 0.15 0.00 52 1010.8
20260507160756 20 233 3.2 9.7 0.00 0.15 0.00 52 1010.7
20260507160254 20 229 4.8 16.1 0.00 0.15 0.00 52 1010.7
20260507155759 20 234 0.0 12.9 0.00 0.15 0.00 51 1010.7
20260507155256 20 284 3.2 16.1 0.00 0.15 0.00 54 1010.7
20260507154750 20 211 4.8 19.3 0.00 0.15 0.00 51 1010.7
20260507154253 21 294 6.4 12.9 0.00 0.15 0.00 51 1010.7
20260507153751 21 281 4.8 9.7 0.00 0.15 0.00 52 1010.7
20260507153250 21 280 6.4 11.3 0.00 0.15 0.00 52 1010.8
20260507152750 20 312 4.8 14.5 0.00 0.15 0.00 54 1010.8
20260507152250 20 205 4.8 16.1 0.00 0.15 0.00 52 1010.7
20260507151753 20 306 6.4 19.3 0.00 0.15 0.00 52 1010.7
20260507151253 20 267 9.7 14.5 0.00 0.15 0.00 54 1010.8
20260507150756 20 272 4.8 12.9 0.00 0.15 0.00 55 1010.8
20260507150250 20 255 3.2 20.9 0.00 0.15 0.00 56 1010.8
20260507145759 21 268 3.2 11.3 0.00 0.15 0.00 55 1010.9
20260507145252 21 159 0.0 8.0 0.00 0.15 0.00 57 1010.9
20260507144751 20 236 6.4 22.5 0.00 0.15 0.00 53 1011.0
20260507144252 21 223 6.4 16.1 0.00 0.15 0.00 54 1011.0
20260507143753 21 260 6.4 16.1 0.00 0.15 0.00 57 1011.1
20260507143257 21 199 1.6 20.9 0.00 0.15 0.00 55 1011.2
20260507142759 21 173 1.6 11.3 0.00 0.15 0.00 55 1011.2
20260507142250 21 199 1.6 11.3 0.00 0.15 0.00 56 1011.0
20260507141750 21 215 8.0 14.5 0.00 0.15 0.00 57 1011.1
20260507141250 21 294 4.8 12.9 0.00 0.15 0.00 57 1011.1
20260507140750 21 266 9.7 16.1 0.00 0.15 0.00 57 1011.0
20260507140250 21 220 8.0 22.5 0.00 0.15 0.00 58 1010.9
20260507135752 21 256 12.9 17.7 0.00 0.15 0.00 56 1010.9
20260507135250 21 227 1.6 14.5 0.00 0.15 0.00 60 1011.0
20260507134751 20 271 6.4 16.1 0.00 0.15 0.00 61 1011.0
20260507134259 20 126 11.3 17.7 0.00 0.15 0.00 59 1011.0
20260507133753 20 268 16.1 16.1 0.00 0.15 0.00 60 1011.1
20260507133256 20 182 3.2 22.5 0.00 0.15 0.00 58 1011.2
20260507132750 20 97 3.2 14.5 0.00 0.15 0.00 61 1011.2
20260507132253 20 232 6.4 16.1 0.00 0.15 0.00 58 1011.3
20260507131753 20 275 4.8 17.7 0.00 0.18 0.00 64 1011.2
20260507131253 20 267 3.2 16.1 0.00 0.20 0.00 61 1011.2
20260507130750 19 252 1.6 12.9 0.00 0.30 0.00 62 1011.2
20260507130250 20 175 4.8 11.3 0.00 0.51 0.00 61 1011.2
20260507125754 20 257 3.2 12.9 0.00 0.56 0.00 62 1011.3
20260507125250 20 240 8.0 14.5 0.00 0.64 0.00 62 1011.3
20260507124753 20 270 1.6 11.3 0.00 0.64 0.00 65 1011.3
20260507124251 19 262 9.7 9.7 0.00 0.64 0.00 65 1011.3
20260507123800 19 211 0.0 9.7 0.00 0.64 0.00 63 1011.3
20260507123254 19 219 3.2 8.0 0.00 0.64 0.00 62 1011.3
20260507122753 19 211 4.8 16.1 0.00 0.64 0.00 63 1011.4
20260507122259 19 294 17.7 17.7 0.00 0.64 0.00 63 1011.4
20260507121750 19 205 1.6 14.5 0.00 0.64 0.00 62 1011.3
20260507121250 19 110 4.8 17.7 0.00 0.64 0.00 66 1011.4
20260507120750 18 131 1.6 14.5 0.00 0.64 0.00 67 1011.3
20260507120250 18 264 12.9 17.7 0.00 0.64 0.00 66 1011.5
20260507115750 18 235 3.2 12.9 0.00 0.64 0.00 64 1011.5
20260507115256 19 216 0.0 11.3 0.00 0.64 0.00 63 1011.5
20260507114751 18 243 3.2 16.1 0.00 0.64 0.00 64 1011.6
20260507114256 19 244 1.6 12.9 0.00 0.64 0.00 67 1011.6
20260507113753 18 264 3.2 11.3 0.00 0.64 0.00 66 1011.7
20260507113256 18 245 1.6 14.5 0.00 0.64 0.00 67 1011.7
20260507112758 18 258 9.7 17.7 0.00 0.64 0.00 68 1011.7
20260507112250 18 198 3.2 12.9 0.00 0.64 0.00 68 1011.8
20260507111750 18 222 3.2 14.5 0.00 0.64 0.00 69 1011.9
20260507111255 18 175 3.2 12.9 0.00 0.64 0.00 66 1011.8
20260507110754 18 196 0.0 17.7 0.00 0.64 0.00 69 1011.9
20260507110250 18 254 14.5 17.7 0.00 0.64 0.00 73 1011.8
20260507105758 18 280 9.7 17.7 0.00 0.64 0.00 68 1011.9
20260507105253 18 250 1.6 12.9 0.00 0.64 0.00 70 1012.0
20260507104753 18 196 8.0 14.5 0.00 0.64 0.00 71 1012.1
20260507104250 18 207 3.2 16.1 0.00 0.64 0.00 69 1012.2
20260507103759 18 277 1.6 14.5 0.00 0.64 0.00 71 1012.2
20260507103253 18 207 1.6 8.0 0.00 0.64 0.00 73 1012.2
20260507102756 17 182 4.8 11.3 0.00 0.64 0.00 72 1012.3
20260507102259 17 140 4.8 12.9 0.00 0.64 0.00 75 1012.2
20260507101753 17 191 3.2 16.1 0.00 0.64 0.00 73 1012.3
20260507101254 17 133 3.2 11.3 0.00 0.64 0.00 78 1012.2
20260507100828 17 182 9.7 14.5 0.00 0.64 0.00 74 1012.4
20260507100253 17 148 9.7 16.1 0.00 0.64 0.00 76 1012.3
20260507095756 16 42 3.2 11.3 0.00 0.64 0.00 78 1012.3
20260507095250 16 261 4.8 14.5 0.00 0.64 0.00 76 1012.3
20260507094753 16 290 0.0 9.7 0.00 0.64 0.00 79 1012.3
20260507094259 16 155 9.7 12.9 0.00 0.64 0.00 78 1012.3
20260507093750 16 117 3.2 12.9 0.00 0.64 0.00 79 1012.4
20260507093250 16 132 1.6 8.0 0.00 0.64 0.00 79 1012.5
20260507092756 16 318 3.2 9.7 0.00 0.64 0.00 80 1012.6
20260507092250 16 226 3.2 9.7 0.00 0.64 0.00 81 1012.6
20260507091750 16 184 3.2 9.7 0.00 0.64 0.00 81 1012.6
20260507091250 16 217 4.8 14.5 0.00 0.64 0.00 81 1012.7
20260507090756 15 185 6.4 9.7 0.00 0.64 0.00 83 1012.6
20260507090252 15 235 3.2 8.0 0.00 0.64 0.00 83 1012.7
20260507085751 15 178 1.6 14.5 0.00 0.64 0.00 83 1012.8
20260507085254 15 192 6.4 6.4 0.00 0.64 0.00 85 1012.8
20260507084750 15 265 4.8 12.9 0.00 0.64 0.00 86 1012.7
20260507084301 14 231 0.0 4.8 0.00 0.64 0.00 87 1012.7
20260507083750 14 111 3.2 6.4 0.00 0.64 0.00 87 1012.7
20260507083250 14 126 4.8 8.0 0.00 0.64 0.00 89 1012.8
20260507082754 13 235 0.0 6.4 0.00 0.64 0.00 91 1012.8
20260507082253 13 258 1.6 12.9 0.00 0.64 0.00 91 1012.7
20260507081750 13 205 3.2 4.8 0.00 0.64 0.00 91 1012.7
20260507081259 13 163 1.6 4.8 0.00 0.64 0.00 91 1012.7
20260507080753 13 253 1.6 4.8 0.00 0.64 0.00 92 1012.8
20260507080250 13 173 1.6 6.4 0.00 0.64 0.00 92 1012.7
20260507075750 13 161 6.4 9.7 0.00 0.64 0.00 93 1012.7
20260507075253 13 183 3.2 3.2 0.00 0.64 0.00 95 1012.7
20260507074753 12 155 0.0 8.0 0.00 0.64 0.00 94 1012.7
20260507074250 12 182 1.6 3.2 0.00 0.64 0.00 95 1012.7
20260507073750 12 252 0.0 3.2 0.00 0.64 0.00 95 1012.7
20260507073250 12 209 3.2 3.2 0.00 0.64 0.00 95 1012.6
20260507072750 12 204 1.6 3.2 0.00 0.64 0.00 95 1012.6
20260507072256 12 202 0.0 3.2 0.00 0.64 0.00 96 1012.6
20260507071754 12 208 0.0 1.6 0.00 0.64 0.00 96 1012.7
20260507071250 12 290 0.0 1.6 0.00 0.64 0.00 96 1012.6
20260507070756 12 290 0.0 3.2 0.00 0.64 0.00 95 1012.6
20260507070250 12 290 0.0 4.8 0.00 0.64 0.00 96 1012.5
20260507065754 12 279 1.6 3.2 0.00 0.64 0.00 95 1012.5
20260507065256 12 285 3.2 4.8 0.00 0.64 0.00 96 1012.4
20260507064750 12 273 3.2 4.8 0.00 0.64 0.00 96 1012.4
20260507064253 12 288 3.2 4.8 0.00 0.64 0.00 96 1012.4
20260507063750 12 269 1.6 1.6 0.00 0.64 0.00 96 1012.4
20260507063253 12 269 0.0 1.6 0.00 0.64 0.00 96 1012.3
20260507062756 12 263 0.0 3.2 0.00 0.64 0.00 96 1012.3
20260507062253 12 254 1.6 4.8 0.00 0.64 0.00 96 1012.4
20260507061751 12 204 0.0 1.6 0.00 0.66 0.00 96 1012.3
20260507061253 11 204 0.0 3.2 0.00 0.66 0.00 96 1012.2
20260507060755 11 173 0.0 3.2 0.00 0.71 0.00 96 1012.2
20260507060256 11 174 0.0 0.0 0.00 0.74 0.00 96 1012.1
20260507055753 11 173 0.0 1.6 0.00 0.74 0.00 96 1012.1
20260507055252 11 173 0.0 3.2 0.00 0.81 0.00 96 1012.2
20260507054753 11 173 1.6 3.2 0.00 0.81 0.00 96 1012.1
20260507054253 11 277 0.0 0.0 0.00 0.81 0.00 96 1012.1
20260507053750 11 277 0.0 0.0 0.00 0.81 0.00 96 1012.1
20260507053250 11 277 0.0 0.0 0.00 0.81 0.00 96 1012.0
20260507052750 11 277 0.0 1.6 0.00 0.81 0.00 96 1012.0
20260507052250 11 277 0.0 3.2 0.00 0.81 0.00 96 1012.0
20260507051753 11 275 3.2 4.8 0.00 0.81 0.00 95 1011.9
20260507051250 11 179 0.0 1.6 0.00 0.81 0.00 96 1011.9
20260507050753 11 250 0.0 0.0 0.00 0.81 0.00 96 1011.8
20260507050253 11 250 0.0 0.0 0.00 0.81 0.00 96 1011.7
20260507045753 11 250 0.0 1.6 0.00 0.81 0.00 96 1011.7
20260507045250 11 250 0.0 3.2 0.00 0.81 0.00 96 1011.7
20260507044753 11 250 1.6 3.2 0.00 0.81 0.00 96 1011.7
20260507044256 11 126 0.0 1.6 0.00 0.81 0.00 96 1011.6
20260507043754 11 126 0.0 1.6 0.00 0.81 0.00 96 1011.6
20260507043256 11 126 1.6 4.8 0.00 0.81 0.00 95 1011.6
20260507042759 11 84 0.0 3.2 0.00 0.81 0.00 95 1011.6
20260507042250 11 87 1.6 3.2 0.00 0.81 0.00 95 1011.5
20260507041753 11 126 0.0 3.2 0.00 0.84 0.00 95 1011.5
20260507041256 11 126 1.6 3.2 0.00 0.84 0.00 96 1011.5
20260507040751 11 126 1.6 3.2 0.00 0.84 0.00 95 1011.4
20260507040254 11 126 0.0 1.6 0.00 0.84 0.00 95 1011.5
20260507035750 11 126 0.0 0.0 0.00 0.84 0.00 95 1011.5
20260507035251 11 126 0.0 1.6 0.00 0.84 0.00 95 1011.5
20260507034753 11 126 0.0 0.0 0.00 0.84 0.00 95 1011.5
20260507034253 11 126 0.0 3.2 0.00 0.84 0.00 95 1011.4
20260507033756 11 157 3.2 3.2 0.00 0.89 0.00 95 1011.4
20260507033253 11 279 0.0 3.2 0.00 0.94 0.00 95 1011.4
20260507032753 11 345 1.6 3.2 0.00 0.99 0.00 95 1011.3
20260507032250 11 355 1.6 3.2 0.00 1.07 0.00 95 1011.3
20260507031750 11 355 0.0 3.2 0.00 1.24 0.00 95 1011.3
20260507031250 11 282 0.0 1.6 0.00 1.35 0.00 95 1011.3
20260507030756 11 275 1.6 4.8 0.00 1.55 0.00 95 1011.3
20260507030254 11 111 0.0 6.4 0.00 1.65 0.00 95 1011.2
20260507025750 11 165 1.6 3.2 0.00 1.85 0.00 95 1011.3
20260507025257 11 281 1.6 1.6 0.00 1.98 0.00 95 1011.3
20260507024750 11 282 1.6 6.4 0.00 2.06 0.00 95 1011.3
20260507024250 11 142 1.6 8.0 0.00 2.16 0.00 95 1011.3
20260507023750 11 136 4.8 6.4 0.00 2.24 0.00 95 1011.2
20260507023251 11 142 3.2 3.2 0.00 2.29 0.00 95 1011.3
20260507022753 11 162 0.0 3.2 0.00 2.34 0.00 95 1011.4
20260507022256 11 162 0.0 3.2 0.00 2.41 0.00 95 1011.4
20260507021753 11 162 1.6 1.6 0.00 2.51 0.00 95 1011.4
20260507021250 11 162 1.6 3.2 0.00 2.62 0.00 95 1011.4
20260507020753 11 148 0.0 6.4 0.00 2.87 0.00 95 1011.4
20260507020253 11 244 0.0 3.2 0.00 3.02 0.00 95 1011.5
20260507015756 11 279 1.6 1.6 0.00 3.05 0.00 95 1011.4
20260507015254 11 283 0.0 1.6 0.00 3.07 0.00 95 1011.4
20260507014753 11 283 1.6 3.2 0.00 3.07 0.00 95 1011.4
20260507014253 11 283 3.2 3.2 0.00 3.10 0.00 95 1011.3
20260507013754 11 283 0.0 1.6 0.00 3.10 0.00 95 1011.3
20260507013250 11 283 0.0 3.2 0.00 3.10 0.00 95 1011.3
20260507012751 11 283 0.0 3.2 0.00 3.12 0.00 95 1011.4
20260507012256 11 283 0.0 0.0 0.00 3.15 0.00 95 1011.3
20260507011756 11 283 0.0 0.0 0.00 3.17 0.00 95 1011.4
20260507011251 11 283 0.0 1.6 0.00 3.17 0.00 95 1011.4
20260507010750 11 283 0.0 0.0 0.00 3.20 0.00 95 1011.4
20260507010253 11 283 0.0 1.6 0.00 3.23 0.00 95 1011.4
20260507005750 11 283 0.0 1.6 0.00 3.25 0.00 94 1011.4
20260507005254 12 283 0.0 1.6 0.00 3.30 0.00 94 1011.4
20260507004750 12 283 0.0 0.0 0.00 3.38 0.00 94 1011.3
20260507004250 12 283 0.0 0.0 0.00 3.61 0.00 94 1011.4
20260507003753 12 283 0.0 0.0 0.00 3.91 0.00 95 1011.4
20260507003250 12 283 0.0 1.6 0.00 3.91 0.00 94 1011.4
20260507002757 12 283 0.0 1.6 0.00 3.91 0.00 94 1011.5
20260507002250 12 283 0.0 1.6 0.00 3.91 0.00 94 1011.4
20260507001751 12 283 0.0 1.6 0.00 3.94 0.00 94 1011.4
20260507001253 12 283 0.0 1.6 0.00 3.94 0.00 94 1011.5
20260507000757 12 283 0.0 0.0 0.00 3.94 0.00 94 1011.5
20260507000251 12 283 0.0 1.6 0.00 3.94 0.00 94 1011.6
20260506235801 12 283 0.0 1.6 0.00 3.94 0.00 94 1011.6
20260506235250 12 283 0.0 0.0 0.00 3.94 0.00 94 1011.6
20260506234756 12 283 0.0 0.0 0.00 3.94 0.00 94 1011.6
20260506234254 12 283 0.0 1.6 0.00 4.22 0.00 94 1011.5
20260506233750 12 279 0.0 3.2 0.00 4.32 0.00 94 1011.5
20260506233250 12 298 1.6 3.2 0.00 4.39 0.00 94 1011.5